Location: Gwatt
(46.7204°N, 7.6223°E)
Time: 20:02:20
(UTC+00:00)

Transit 2A - Pass Details

Date: 29 January 2021
Orbit: 600 x 958 km, 66.7° (Epoch: 26 February)

Event Time Altitude Azimuth Distance (km) Brightness Sun altitude
Rises 11:45:12 0° 316° (NW) 2,967 8.7 25.5°
Reaches altitude 10° 11:47:53 10° 302° (WNW) 2,011 8.0 25.5°
Maximum altitude 11:51:26 23° 250° (WSW) 1,294 7.7 25.5°
Drops below altitude 10° 11:54:53 10° 197° (SSW) 1,939 9.8 25.4°
Sets 11:57:25 0° 183° (S) 2,834 10.3 25.4°
